STARLINK-32042, 60108

Orbit data source: Space-Track

STARLINK-32042, 60108 is a payload satellite owned by SpaceX/Seattle (US) in LEO that was launched on Sun, 23 Jun 2024 UTC via an FALCON 9 launch vehicle from the Air Force Eastern Test Range (AFETR). Payload-class satellites include a variety of spacecraft equipped with specific instruments for various scientific and technological missions. These include communications satellites like Starlink; space stations such as the ISS; scientific satellites like the Hubble; Earth observation satellites from companies like Planet Labs, Umbra, and HawkEye 360; GPS; miniature CubeSats for education and research; and military/defense satellites.

Loading next visibility...
Identifier
60108, 2024-117T
Orbit
LEO
Country
Flag of USUS
Related business
Manufacturer
SpaceX/Seattle
Mission
Operational Commercial Communications
Bus & Motor
STARLINK V2M, Unknown motor
Mass
730 kg wet, ~700 kg dry
Launch date (UTC)
2024-06-23 (2 years ago)
Launch vehicle
FALCON 9
Launch site
Air Force Eastern Test Range (AFETR)
Object type
Payload
Rocket body
Debris
Shape & HBR
Box + 2 Pan, 17.7 m
Radar Cross Section
33.884 m², Large (>1 m²)

Expand to show TLE details & history
Last TLE update: 12 hours ago

TLE from 12 hours ago
0 STARLINK-32042
1 60108U 24117T   26171.33117619  .00006341  00000-0  22634-3 0  9992
2 60108  53.1619 280.2028 0001391 100.8052 259.3105 15.30154662112602
Epoch: 2026-06-20T07:56Z
TLE epoch observation values (Epoch: 2026-06-20T07:56:53.622Z)
Latitude
-0.00007°
Longitude
-107.56801°
Altitude
476.427 km
Speed
7.629 km/s
True Right ascension
18h 40m 48s
True Declination
0° 00' 00"
Sunlit
Object was in full shadow at epoch
Visualization orbit readout
Latitude
Unknown
Longitude
Unknown
Altitude
Unknown
Speed
Unknown
Apparent Right ascension
Unknown
Apparent Declination
Unknown
Sunlit
N/A
Visualization observer readout
Local Sidereal Time
07:12:42
Azimuth
Unknown
Elevation
Unknown
Doppler factor
Unknown
Orbital elements
Apogee altitude
476.56 km
Perigee altitude
474.653 km
Semi-major axis
6,853.744 km
Eccentricity
0.00014
Inclination
53.1619°
RAAN
280.2028°
Arg. of periapsis
100.8052°
True anomaly
259.29484°
Mean anomaly
259.3105°
Eccentric anomaly
259.30267°
Mean motion
3.82518 °/min
Orbital period
94.11 mins
BSTAR
0.00022634
Loading maneuver chart data...
Computing Atmospheric mass density...
Loading historical data...
Loading historical data...
Loading historical data...
Loading historical data...
Loading historical data...
Loading historical data...
Loading historical data...

Documentation

Showing up to 5 results
|